Location: Normandy Village
(37.8755°N, 122.2655°W)
Time: 00:46:03
(UTC+00:00)

COSMOS 2441 - Pass Details

Date: 22 September 2019
Orbit: 709 x 730 km, 98.0° (Epoch: 21 October)

Event Time Altitude Azimuth Distance (km) Brightness Sun altitude
Rises 12:32:09 0° 9° (N) 3,147 8.0 -17.3°
Reaches altitude 10° 12:34:26 10° 7° (N) 2,225 7.2 -16.9°
Maximum altitude 12:39:18 70° 285° (WNW) 774 4.3 -16.0°
Drops below altitude 10° 12:44:09 10° 202° (SSW) 2,219 6.6 -15.0°
Enters shadow 12:45:40 - 201° (SSW) 2,831 7.1 -14.7°
